Powrót do katalogu

CHINASAT 5

SPACENET 1

AktywnyŁącznośćGEO
NORAD 14985·PAYLOAD·🇨🇳 China

Wystrzelony May 23, 1984 z Guiana Space Centre

Loading…

TLE

ŚwieżeSource: Space-Track

Epoka: Sep 13, 2026, 16:03 UTC

1 14985U 84049A   26256.66936090 -.00000311  00000-0  00000-0 0  9998
2 14985  14.3170 347.6346 0011988 237.2116 113.5662  0.99983922132187

Śledź CHINASAT 5 w czasie rzeczywistym z AllMySat

Download on the App Store